www.pogodaiklimat.ru

Погода и климат >> Архив погоды >> Беларусь >> Воложин


ПОГОДА в Воложине

  • Прогноз погоды в Воложине
  • Монитор погоды в Воложине

АРХИВ ПОГОДЫ в Воложине

Время (UTC), дата Ветер
(напр.,м/с)
 
Видим.   Явления Облачность Т
(С)
Тd
(С)
f
(%)
Тe
(С)
Тes
(С)
Комфортность P
(гПа)
Po
(гПа)
Тmin
(С)
Tmax
(С)
R
(мм)
R24
(мм)
S
(см)
09 12.02 З 6
{10}
35 км 10/10 500 м
[St]
+0.2 -1.9 86 -6 -6 1007.0 987.7
12 12.02 З 5
{10}
35 км 9/9 720 м
[Sc]
+0.4 -2.5 81 -6 -6 1009.0 989.6
15 12.02 З 3 1200 м слаб. снег 10/10 150 м
[Frnb Ns]
-0.5 -1.1 96 -5 -5 1012.0 992.5
18 12.02 СЗ 6-10
{11}
35 км {снег} 9/9 750 м
[Sc]
-1.3 -4.6 78 -8 -8 1016.0 996.4 +0.8 2 13
21 12.02 СЗ 4
{12}
35 км 9/9 870 м
[Sc]
-1.3 -5.7 72 -7 -7 1018.0 998.3
00 13.02 СЗ 3
{11}
35 км 9/9 840 м
[Sc]
-1.3 -5.7 72 -6 -6 1019.0 999.3
03 13.02 З 3 35 км 9/9 840 м
[Sc]
-1.7 -6.1 72 -6 -6 1020.0 1000.3 -1.8 13
06 13.02 З 4 35 км 9/9 750 м
[Sc]
-2.4 -5.9 77 -8 -8 1020.0 1000.2 -2.5 13
09 13.02 ЮЗ 4 35 км 10/10 300 м
[St]
-1.2 -3.4 85 -7 -7 1019.0 999.3
12 13.02 ЮЗ 4 22 км слаб. снег 10/10 270 м
[Frnb Ns]
-1.0 -2.4 90 -7 -7 1017.0 997.4
15 13.02 ЮЗ 3 1500 м слаб. снег 10/10 120 м
[Frnb Ns]
-1.3 -1.9 96 -6 -6 1014.0 994.4
18 13.02 З 2 1500 м слаб. снег 10/10 120 м
[Frnb Ns]
-0.2 -0.5 98 -4 -4 1015.0 995.5 -0.2 4 16
21 13.02 СЗ 4 3900 м дымка {снег} 10/10 210 м
[St]
+1.0 +0.1 94 -4 -4 1018.0 998.5
00 14.02 СЗ 3 35 км {снег} 10/10 330 м
[St]
+0.8 -0.3 92 -4 -4 1021.0 1001.4
03 14.02 СЗ 2 26 км {дождь} 10/10 270 м
[St]
+0.8 +0.1 95 -3 -3 1022.0 1002.4 -0.2 16
06 14.02 З 2 27 км {дождь} 10/10 210 м
[St]
+0.6 -0.3 94 -3 -3 1025.0 1005.4 -0.2 0.3 16
09 14.02 З 3 800 м туман ?/? +0.3 0.0 98 -5 -2 1027.0 1007.3
12 14.02 З 2 28 км {туман} 9/9 630 м
[Sc]
+2.1 +0.2 87 -1 -1 1027.0 1007.4
15 14.02 З 2 24 км 4/0
[Ci fib]
+1.8 -0.4 85 -2 -2 1029.0 1009.4
18 14.02 З 2 15 км ясно -0.2 -0.6 97 -4 -4 1029.0 1009.2 +3.1 14
21 14.02 З 2 300 м туман ?/? -0.8 -0.9 99 -5 -5 1030.0 1010.2
00 15.02 З 4 800 м туман ?/? +0.3 +0.2 99 -5 -5 1030.0 1010.2
03 15.02 ЮЗ 1 600 м туман ?/? +0.6 +0.5 99 -2 -2 1029.0 1009.3 -2.5 14
06 15.02 ЮЗ 3 200 м слаб. дождь {туман} туман ?/? +1.2 +1.1 99 -4 -3 1028.0 1008.3 -2.5 0.1 13
09 15.02 З 4 3600 м дымка {дождь, туман} 10/10 210 м
[St]
+2.3 +2.2 99 -3 -3 1028.0 1008.4
12 15.02 З 4
{10}
10 км {дождь, туман} 10/10 270 м
[St]
+1.6 +1.0 96 -4 -4 1027.0 1007.4
15 15.02 З 3 1600 м дымка 10/10 150 м
[St]
+1.2 +1.1 99 -4 -4 1028.0 1008.3
18 15.02 З 3 200 м туман ?/? +1.3 +1.2 99 -3 -3 1028.0 1008.4 +2.3 0.0 12
21 15.02 З 4 300 м туман ?/? +1.6 +1.5 99 -4 -4 1027.0 1007.4
00 16.02 ЮЗ 3 200 м туман ?/? +1.6 +1.5 99 -3 -3 1026.0 1006.4
03 16.02 З 4 200 м туман ?/? +1.3 +1.2 99 -4 -4 1026.0 1006.4 +1.2 11
06 16.02 ЮЗ 4 200 м туман ?/? +1.0 +0.9 99 -4 -4 1025.0 1005.4 +1.0 11
09 16.02 З 4 1900 м в посл. час туман 10/10 150 м
[St]
+1.1 +1.0 99 -4 -4 1026.0 1006.4
12 16.02 ЮЗ 4 30 км {туман} 10/10 210 м
[St]
+2.0 +1.0 93 -3 -3 1025.0 1005.5
15 16.02 ЮЗ 3 14 км ясно +1.8 +0.6 92 -3 -3 1023.0 1003.5
18 16.02 ЮЗ 3 3900 м дымка ясно +0.6 +0.3 98 -4 -4 1022.0 1002.4 +2.5 10
21 16.02 ЮЗ 4 3200 м дымка ясно -0.3 -0.4 99 -6 -6 1020.0 1000.4
00 17.02 ЮЗ 3 5000 м ясно -1.4 -1.7 98 -7 -7 1018.0 998.3
03 17.02 З 4 3900 м 3 балла -1.1 -1.5 97 -7 -7 1016.0 996.4 -1.8 10
06 17.02 З 4 4600 м дымка 10/10 330 м
[St]
+0.1 -0.5 96 -6 -6 1016.0 996.5 -1.8 10
09 17.02 З 3 4800 м дымка 10/10 240 м
[St]
+1.9 +1.0 94 -3 -3 1018.0 998.6
12 17.02 З 3 6000 м дымка 10/10 270 м
[St]
+2.6 +1.4 92 -2 -2 1018.0 998.6
15 17.02 З 3 13 км 8/0
[Ac trans]
+3.0 +1.1 87 -1 -1 1019.0 999.6
18 17.02 СЗ 2 6000 м дымка ясно +1.2 +0.6 96 -2 -2 1021.0 1001.5 +3.9 9
21 17.02 СЗ 3 9000 м дымка ясно +0.7 -0.6 91 -4 -4 1022.0 1002.4
00 18.02 СЗ 1 30 км ясно -0.4 -2.9 83 -2 -2 1023.0 1003.3
03 18.02 штиль 0 29 км ясно -2.7 -4.3 89 -4 -4 1024.0 1004.1 -3.0 9
06 18.02 ЮЗ 1 7000 м дымка 8/0
[Ac trans]
-6.3 -7.2 93 -9 -9 1026.0 1005.8 -6.3 9
09 18.02 ЮЗ 1 9000 м дымка {туман} 6/0
[Ac trans]
0.0 -3.2 79 -2 -0 1026.0 1006.3
12 18.02 Ю 1 8000 м дымка 10 баллов -0.2 -1.6 90 -2 -2 1026.0 1006.3
15 18.02 З 1 10 км ясно +1.1 -1.5 83 -1 -1 1025.0 1005.4
18 18.02 ЮВ 1 10 км ясно -1.2 -2.0 94 -3 -3 1024.0 1004.2 +2.1 8
21 18.02 ЮВ 2 10 км ясно -2.0 -2.8 94 -6 -6 1024.0 1004.2
00 19.02 ЮВ 2 10 км ясно -2.6 -4.5 87 -7 -7 1023.0 1003.2
03 19.02 ЮВ 3 10 км ясно -2.8 -5.0 85 -8 -8 1021.0 1001.2 -3.0 8
06 19.02 Ю 4 10 км ясно -3.0 -5.8 81 -9 -9 1019.0 999.2 -3.1 8

 

Местоположение метеостанции Воложин (Минская область, Беларусь): широта 54.09 долгота 26.52 высота над уровнем моря 155 м.

В архиве по умолчанию представлена погода в Воложине за последнюю неделю. Архивные данные за месяц целиком и за предыдущие месяцы, начиная с января 2011 года, Вы можете получить, выбрав интересующий диапазон дат из раскрывающегося списка и нажав кнопку "Ввод!".


*Определитесь, кто Вы:
робот инопланетянин человек

Внимание! Время в таблицах - всемирное. Для получения местного времени необходимо прибавить поправку, которая равна 3 ч.

Смотрите также архив погоды в соседних городах и на ближайших метеорологических станциях:

Погода в Ошмянах (Гродненская область, Беларусь) (54 км)
Погода в Вилейке (Минская область, Беларусь) (56 км)
Погода в Столбцах (Минская область, Беларусь) (69 км)
Погода в Новогрудке (Гродненская область, Беларусь) (70 км)
Погода в Минске (город Минск, Беларусь) (78 км)
Погода в Лиде (Гродненская область, Беларусь) (81 км)
Погода в Нарочи (Минская область, Беларусь) (95 км)
Погода в Вильнюсе (Литва) (100 км)
Погода в Лынтупах (Витебская область, Беларусь) (108 км)
Погода в Барановичах (Брестская область, Беларусь) (113 км)

Пояснения к столбцам:

Ветер - указаны скорость ветра в м/с - средняя за 10 мин, порывы в срок и между сроками (в фигурных скобках) и направление, откуда дует ветер: С - северный, СВ - северо-восточный, В - восточный, ЮВ - юго-восточный, Ю - южный, ЮЗ - юго-западный, З - западный, СЗ - северо-западный.
Видимость - горизонтальная дальность видимости в метрах или километрах. При видимости от 1 до 10 км при отсутствии осадков обычно наблюдается дымка, при ухудшении видимости до 1 км и менее - туман. В сухую погоду видимость может ухудшаться дымом, пылью или мглою.
Явления - указаны атмосферные явления, наблюдавшиеся в срок или в последний час перед сроком; фигурными скобками обозначены явления, наблюдавшиеся между сроками (за 1-3 часа до срока); квадратными скобками обозначены град или гололедные отложения с указанием их диаметра в мм.
Облачность - указаны через наклонную черту общая и нижняя облачность в баллах и высота нижней границы облаков в метрах; квадратными скобками обозначены формы облаков: Ci - перистые, Cs - перисто-слоистые, Cc - перисто-кучевые, Ac - высококучевые, As - высокослоистые, Sc - слоисто-кучевые, Ns - слоисто-дождевые, Cu - кучевые, Cb - кучево-дождевые. Подробнее классификацию облаков см. в Атласе облаков (PDF).
T - Температура воздуха - температура, измеренная на высоте 2 м над землей.
Td - Температура точки росы - температура, при понижении до которой содержащийся в воздухе водяной пар достигнет насыщения.
f - Относительная влажность воздуха - влажноcть воздуха, измеренная на высоте 2 м над землей.
Te - Эффективная температура - температура, которую ощущает одетый по сезону человек в тени. Характеристика душности погоды. При расчете учитывается влияние влажности воздуха и скорости ветра на теплоощущения человека.
Tes - Эффективная температура на солнце - температура, которую ощущает человек, с поправкой на солнечный нагрев. Характеристика знойности погоды. Зависит от высоты солнца над горизонтом, облачности и скорости ветра. Ночью, в пасмурную погоду, а также при ветре 12 м/с и более поправка равна нулю.
P - Атмосферное давление - приведенное к уровню моря атмосферное давление.
Po - Атмосферное давление - измеренное на уровне метеостанции атмосферное давление.
Tmin - Минимальная температура - минимум температуры воздуха на высоте 2 м над землей.
Tmax - Максимальная температура - максимум температуры воздуха на высоте 2 м над землей.
R - Количество осадков - Количество выпавших осадков за период времени, мм. При наведении курсора мыши на число - период времени, за который выпало указанное количество осадков.
R24 - Количество осадков - Количество выпавших осадков за 24 часа, мм.
S - Снежный покров - Высота снежного покрова, см. При наведении курсора мыши на число - состояние снежного покрова и степень покрытия местности в баллах.